Simultaneous Nadir Overpasses (SNOs) Predictions

Prediction of SNOs between METOP-B and NOAA-19 Satellite Orbit:

Table of predicted SNOs for the next 14.0 days since TLE Epoch: 9/11/2020
Index Date (METOP-B) Time (METOP-B) Lat,Lon (METOP-B) SZA (METOP-B ) Date (NOAA-19) Time (NOAA-19) Lat,Lon (NOAA-19) SZA (NOAA-19 ) Distance(km) Time Diff (sec)
1 09/18/2020 02:10:10 -80.20, -8.45 100.61 09/18/2020 02:08:59 -80.20, -8.63 100.65 3.42 71
2 09/18/2020 03:00:51 80.18, 158.68 79.38 09/18/2020 03:00:05 80.20, 158.55 79.37 3.03 46
3 09/18/2020 03:51:32 -80.19, -33.93 100.61 09/18/2020 03:50:59 -80.19, -33.96 100.62 0.65 33
4 09/18/2020 04:42:13 80.17, 133.20 79.38 09/18/2020 04:42:05 80.19, 133.22 79.40 2.03 8
5 09/18/2020 05:32:53 -80.18, -59.41 100.60 09/18/2020 05:32:58 -80.18, -59.29 100.59 2.33 5
6 09/18/2020 06:23:33 80.19, 108.02 79.43 09/18/2020 06:24:04 80.18, 107.89 79.43 2.73 31
7 09/18/2020 07:14:15 -80.16, -84.90 100.60 09/18/2020 07:14:59 -80.19, -84.95 100.57 2.59 44
8 09/18/2020 08:04:55 80.17, 82.54 79.44 09/18/2020 08:06:04 80.17, 82.56 79.46 0.72 69
